Year,Month,Day,Hour,Minute,Value (Times are PST for temperature in C)
2008,05,18,00,00,20.00
2008,05,18,00,01,20.10
2008,05,18,00,02,20.10
2008,05,18,00,03,20.10
2008,05,18,00,04,20.10
2008,05,18,00,05,20.10
2008,05,18,00,06,20.10
2008,05,18,00,07,20.10
2008,05,18,00,08,20.10
2008,05,18,00,09,20.10
2008,05,18,00,10,20.10
2008,05,18,00,11,20.10
2008,05,18,00,12,20.10
2008,05,18,00,13,20.20
2008,05,18,00,14,20.20
2008,05,18,00,15,20.20
2008,05,18,00,16,20.20
2008,05,18,00,17,20.20
2008,05,18,00,18,20.20
2008,05,18,00,19,20.20
2008,05,18,00,20,20.20
2008,05,18,00,21,20.20
2008,05,18,00,22,20.20
2008,05,18,00,23,20.20
2008,05,18,00,24,20.20
2008,05,18,00,25,20.20
2008,05,18,00,26,20.20
2008,05,18,00,27,20.20
2008,05,18,00,28,20.20
2008,05,18,00,29,20.20
2008,05,18,00,30,20.10
2008,05,18,00,31,20.10
2008,05,18,00,32,20.00
2008,05,18,00,33,20.00
2008,05,18,00,34,19.90
2008,05,18,00,35,19.90
2008,05,18,00,36,19.90
2008,05,18,00,37,19.90
2008,05,18,00,38,19.80
2008,05,18,00,39,19.80
2008,05,18,00,40,19.80
2008,05,18,00,41,19.80
2008,05,18,00,42,19.80
2008,05,18,00,43,19.80
2008,05,18,00,44,19.80
2008,05,18,00,45,19.80
2008,05,18,00,46,19.80
2008,05,18,00,47,19.70
2008,05,18,00,48,19.70
2008,05,18,00,49,19.70
2008,05,18,00,50,19.70
2008,05,18,00,51,19.70
2008,05,18,00,52,19.60
2008,05,18,00,53,19.60
2008,05,18,00,54,19.60
2008,05,18,00,55,19.50
2008,05,18,00,56,19.50
2008,05,18,00,57,19.50
2008,05,18,00,58,19.40
2008,05,18,00,59,19.40
2008,05,18,01,00,19.40
2008,05,18,01,01,19.40
2008,05,18,01,02,19.40
2008,05,18,01,03,19.40
2008,05,18,01,04,19.40
2008,05,18,01,05,19.40
2008,05,18,01,06,19.30
2008,05,18,01,07,19.30
2008,05,18,01,08,19.30
2008,05,18,01,09,19.20
2008,05,18,01,10,19.20
2008,05,18,01,11,19.20
2008,05,18,01,12,19.20
2008,05,18,01,13,19.10
2008,05,18,01,14,19.10
2008,05,18,01,15,19.00
2008,05,18,01,16,19.00
2008,05,18,01,17,19.00
2008,05,18,01,18,18.90
2008,05,18,01,19,18.90
2008,05,18,01,20,18.90
2008,05,18,01,21,18.90
2008,05,18,01,22,18.90
2008,05,18,01,23,18.90
2008,05,18,01,24,18.90
2008,05,18,01,25,18.90
2008,05,18,01,26,18.80
2008,05,18,01,27,18.80
2008,05,18,01,28,18.80
2008,05,18,01,29,18.70
2008,05,18,01,30,18.70
2008,05,18,01,31,18.60
2008,05,18,01,32,18.60
2008,05,18,01,33,18.60
2008,05,18,01,34,18.50
2008,05,18,01,35,18.50
2008,05,18,01,36,18.50
2008,05,18,01,37,18.50
2008,05,18,01,38,18.60
2008,05,18,01,39,18.60
2008,05,18,01,40,18.60
2008,05,18,01,41,18.60
2008,05,18,01,42,18.60
2008,05,18,01,43,18.60
2008,05,18,01,44,18.60
2008,05,18,01,45,18.50
2008,05,18,01,46,18.50
2008,05,18,01,47,18.50
2008,05,18,01,48,18.60
2008,05,18,01,49,18.60
2008,05,18,01,50,18.60
2008,05,18,01,51,18.60
2008,05,18,01,52,18.60
2008,05,18,01,53,18.70
2008,05,18,01,54,18.70
2008,05,18,01,55,18.80
2008,05,18,01,56,18.80
2008,05,18,01,57,18.90
2008,05,18,01,58,18.90
2008,05,18,01,59,18.90
2008,05,18,02,00,18.80
2008,05,18,02,01,18.80
2008,05,18,02,02,18.80
2008,05,18,02,03,18.70
2008,05,18,02,04,18.70
2008,05,18,02,05,18.60
2008,05,18,02,06,18.60
2008,05,18,02,07,18.50
2008,05,18,02,08,18.40
2008,05,18,02,09,18.40
2008,05,18,02,10,18.40
2008,05,18,02,11,18.30
2008,05,18,02,12,18.30
2008,05,18,02,13,18.30
2008,05,18,02,14,18.30
2008,05,18,02,15,18.30
2008,05,18,02,16,18.30
2008,05,18,02,17,18.30
2008,05,18,02,18,18.30
2008,05,18,02,19,18.30
2008,05,18,02,20,18.30
2008,05,18,02,21,18.30
2008,05,18,02,22,18.30
2008,05,18,02,23,18.30
2008,05,18,02,24,18.30
2008,05,18,02,25,18.30
2008,05,18,02,26,18.20
2008,05,18,02,27,18.20
2008,05,18,02,28,18.20
2008,05,18,02,29,18.10
2008,05,18,02,30,18.10
2008,05,18,02,31,18.10
2008,05,18,02,32,18.00
2008,05,18,02,33,18.00
2008,05,18,02,34,17.90
2008,05,18,02,35,17.90
2008,05,18,02,36,17.80
2008,05,18,02,37,17.80
2008,05,18,02,38,17.80
2008,05,18,02,39,17.80
2008,05,18,02,40,17.70
2008,05,18,02,41,17.70
2008,05,18,02,42,17.70
2008,05,18,02,43,17.70
2008,05,18,02,44,17.60
2008,05,18,02,45,17.60
2008,05,18,02,46,17.60
2008,05,18,02,47,17.60
2008,05,18,02,48,17.60
2008,05,18,02,49,17.50
2008,05,18,02,50,17.50
2008,05,18,02,51,17.50
2008,05,18,02,52,17.40
2008,05,18,02,53,17.40
2008,05,18,02,54,17.40
2008,05,18,02,55,17.40
2008,05,18,02,56,17.40
2008,05,18,02,57,17.40
2008,05,18,02,58,17.50
2008,05,18,02,59,17.50
2008,05,18,03,00,17.50
2008,05,18,03,01,17.50
2008,05,18,03,02,17.50
2008,05,18,03,03,17.50
2008,05,18,03,04,17.50
2008,05,18,03,05,17.50
2008,05,18,03,06,17.40
2008,05,18,03,07,17.40
2008,05,18,03,08,17.40
2008,05,18,03,09,17.40
2008,05,18,03,10,17.40
2008,05,18,03,11,17.30
2008,05,18,03,12,17.30
2008,05,18,03,13,17.30
2008,05,18,03,14,17.30
2008,05,18,03,15,17.20
2008,05,18,03,16,17.20
2008,05,18,03,17,17.20
2008,05,18,03,18,17.20
2008,05,18,03,19,17.10
2008,05,18,03,20,17.10
2008,05,18,03,21,17.10
2008,05,18,03,22,17.10
2008,05,18,03,23,17.10
2008,05,18,03,24,17.10
2008,05,18,03,25,17.10
2008,05,18,03,26,17.10
2008,05,18,03,27,17.10
2008,05,18,03,28,17.10
2008,05,18,03,29,17.00
2008,05,18,03,30,17.00
2008,05,18,03,31,16.90
2008,05,18,03,32,16.90
2008,05,18,03,33,16.80
2008,05,18,03,34,16.80
2008,05,18,03,35,16.80
2008,05,18,03,36,16.80
2008,05,18,03,37,16.80
2008,05,18,03,38,16.80
2008,05,18,03,39,16.80
2008,05,18,03,40,16.80
2008,05,18,03,41,16.70
2008,05,18,03,42,16.70
2008,05,18,03,43,16.70
2008,05,18,03,44,16.70
2008,05,18,03,45,16.70
2008,05,18,03,46,16.70
2008,05,18,03,47,16.60
2008,05,18,03,48,16.60
2008,05,18,03,49,16.60
2008,05,18,03,50,16.60
2008,05,18,03,51,16.50
2008,05,18,03,52,16.50
2008,05,18,03,53,16.40
2008,05,18,03,54,16.40
2008,05,18,03,55,16.40
2008,05,18,03,56,16.40
2008,05,18,03,57,16.40
2008,05,18,03,58,16.30
2008,05,18,03,59,16.30
2008,05,18,04,00,16.40
2008,05,18,04,01,16.40
2008,05,18,04,02,16.40
2008,05,18,04,03,16.40
2008,05,18,04,04,16.40
2008,05,18,04,05,16.40
2008,05,18,04,06,16.30
2008,05,18,04,07,16.20
2008,05,18,04,08,16.10
2008,05,18,04,09,16.00
2008,05,18,04,10,16.00
2008,05,18,04,11,15.90
2008,05,18,04,12,15.80
2008,05,18,04,13,15.80
2008,05,18,04,14,15.80
2008,05,18,04,15,15.70
2008,05,18,04,16,15.70
2008,05,18,04,17,15.70
2008,05,18,04,18,15.70
2008,05,18,04,19,15.70
2008,05,18,04,20,15.70
2008,05,18,04,21,15.70
2008,05,18,04,22,15.70
2008,05,18,04,23,15.70
2008,05,18,04,24,15.70
2008,05,18,04,25,15.70
2008,05,18,10,23,21.30
2008,05,18,10,24,21.30
2008,05,18,10,25,21.20
2008,05,18,10,26,21.20
2008,05,18,10,27,21.20
2008,05,18,10,28,21.30
2008,05,18,10,29,21.30
2008,05,18,10,30,21.30
2008,05,18,10,31,21.20
2008,05,18,10,32,21.10
2008,05,18,10,33,21.00
2008,05,18,10,34,20.90
2008,05,18,10,35,21.00
2008,05,18,10,36,21.10
2008,05,18,10,37,21.10
2008,05,18,10,38,21.00
2008,05,18,10,39,21.10
2008,05,18,10,40,21.10
2008,05,18,10,41,21.20
2008,05,18,10,42,21.20
2008,05,18,10,43,21.30
2008,05,18,10,44,21.20
2008,05,18,10,45,21.10
2008,05,18,10,46,21.10
2008,05,18,10,47,21.10
2008,05,18,10,48,21.10
2008,05,18,10,49,21.00
2008,05,18,10,50,21.00
2008,05,18,10,51,21.00
2008,05,18,10,52,21.10
2008,05,18,10,53,21.10
2008,05,18,10,54,21.20
2008,05,18,10,55,21.10
2008,05,18,10,56,21.10
2008,05,18,10,57,21.00
2008,05,18,10,58,20.90
2008,05,18,10,59,20.80
2008,05,18,11,00,20.80
2008,05,18,11,01,20.90
2008,05,18,11,02,21.00
2008,05,18,11,03,21.20
2008,05,18,11,04,21.30
2008,05,18,11,05,21.30
2008,05,18,11,06,21.30
2008,05,18,11,07,21.30
2008,05,18,11,08,21.20
2008,05,18,11,09,21.10
2008,05,18,11,10,21.10
2008,05,18,11,11,21.00
2008,05,18,11,12,20.90
2008,05,18,11,13,21.00
2008,05,18,11,14,21.10
2008,05,18,11,15,21.10
2008,05,18,11,16,21.10
2008,05,18,11,17,21.00
2008,05,18,11,18,21.00
2008,05,18,11,19,20.90
2008,05,18,11,20,20.90
2008,05,18,11,21,20.80
2008,05,18,11,22,20.70
2008,05,18,11,23,20.70
2008,05,18,11,24,20.70
2008,05,18,11,25,20.80
2008,05,18,11,26,20.80
2008,05,18,11,27,20.80
2008,05,18,11,28,20.80
2008,05,18,11,29,20.70
2008,05,18,11,30,20.70
2008,05,18,11,31,20.70
2008,05,18,11,32,20.60
2008,05,18,11,33,20.60
2008,05,18,11,34,20.50
2008,05,18,11,35,20.50
2008,05,18,11,36,20.40
2008,05,18,11,37,20.50
2008,05,18,11,38,20.60
2008,05,18,11,39,20.60
2008,05,18,11,40,20.60
2008,05,18,11,41,20.60
2008,05,18,11,42,20.60
2008,05,18,11,43,20.60
2008,05,18,11,44,20.50
2008,05,18,11,45,20.50
2008,05,18,11,46,20.50
2008,05,18,11,47,20.50
2008,05,18,11,48,20.50
2008,05,18,11,49,20.40
2008,05,18,11,50,20.50
2008,05,18,11,51,20.50
2008,05,18,11,52,20.40
2008,05,18,11,53,20.50
2008,05,18,11,54,20.50
2008,05,18,11,55,20.50
2008,05,18,11,56,20.50
2008,05,18,11,57,20.50
2008,05,18,11,58,20.50
2008,05,18,11,59,20.50
2008,05,18,12,00,20.50
2008,05,18,12,01,20.40
2008,05,18,12,02,20.30
2008,05,18,12,03,20.10
2008,05,18,12,04,20.00
2008,05,18,12,05,20.00
2008,05,18,12,06,19.90
2008,05,18,12,07,19.90
2008,05,18,12,08,19.90
2008,05,18,12,09,19.90
2008,05,18,12,10,19.80
2008,05,18,12,11,19.70
2008,05,18,12,12,19.70
2008,05,18,12,13,19.60
2008,05,18,12,14,19.60
2008,05,18,12,15,19.60
2008,05,18,12,16,19.70
2008,05,18,12,17,19.70
2008,05,18,12,18,19.80
2008,05,18,12,19,19.80
2008,05,18,12,20,19.70
2008,05,18,12,21,19.80
2008,05,18,12,22,19.80
2008,05,18,12,23,19.80
2008,05,18,12,24,19.70
2008,05,18,12,25,19.70
2008,05,18,12,26,19.70
2008,05,18,12,27,19.70
2008,05,18,12,28,19.70
2008,05,18,12,29,19.70
2008,05,18,12,30,19.60
2008,05,18,12,31,19.60
2008,05,18,12,32,19.70
2008,05,18,12,33,19.80
2008,05,18,12,34,19.90
2008,05,18,12,35,19.90
2008,05,18,12,36,19.90
2008,05,18,12,37,19.90
2008,05,18,12,38,19.90
2008,05,18,12,39,19.90
2008,05,18,12,40,19.90
2008,05,18,12,41,20.00
2008,05,18,12,42,20.00
2008,05,18,12,43,20.10
2008,05,18,12,44,20.10
2008,05,18,12,45,20.10
2008,05,18,12,46,20.10
2008,05,18,12,47,20.10
2008,05,18,12,48,20.10
2008,05,18,12,49,20.20
2008,05,18,12,50,20.30
2008,05,18,12,51,20.30
2008,05,18,12,52,20.40
2008,05,18,12,53,20.40
2008,05,18,12,54,20.40
2008,05,18,12,55,20.40
2008,05,18,12,56,20.40
2008,05,18,12,57,20.40
2008,05,18,12,58,20.40
2008,05,18,12,59,20.30
2008,05,18,13,00,20.40
2008,05,18,13,01,20.50
2008,05,18,13,02,20.60
2008,05,18,13,03,20.50
2008,05,18,13,04,20.40
2008,05,18,13,05,20.30
2008,05,18,13,06,20.20
2008,05,18,13,07,20.10
2008,05,18,13,08,20.00
2008,05,18,13,09,19.90
2008,05,18,13,10,19.90
2008,05,18,13,11,19.90
2008,05,18,13,12,19.90
2008,05,18,13,13,19.80
2008,05,18,13,14,19.70
2008,05,18,13,15,19.60
2008,05,18,13,16,19.70
2008,05,18,13,17,19.70
2008,05,18,13,18,19.80
2008,05,18,13,19,19.80
2008,05,18,13,20,19.80
2008,05,18,13,21,19.90
2008,05,18,13,22,19.90
2008,05,18,13,23,19.90
2008,05,18,13,24,19.90
2008,05,18,13,25,19.80
2008,05,18,13,26,19.60
2008,05,18,13,27,19.60
2008,05,18,13,28,19.60
2008,05,18,13,29,19.60
2008,05,18,13,30,19.70
2008,05,18,13,31,19.80
2008,05,18,13,32,19.80
2008,05,18,13,33,19.70
2008,05,18,13,34,19.60
2008,05,18,13,35,19.50
2008,05,18,13,36,19.40
2008,05,18,13,37,19.50
2008,05,18,13,38,19.50
2008,05,18,13,39,19.50
2008,05,18,13,40,19.40
2008,05,18,13,41,19.30
2008,05,18,13,42,19.20
2008,05,18,13,43,19.10
2008,05,18,13,44,19.10
2008,05,18,13,45,19.20
2008,05,18,13,46,19.20
2008,05,18,13,47,19.10
2008,05,18,13,48,19.00
2008,05,18,13,49,19.00
2008,05,18,13,50,18.90
2008,05,18,13,51,18.80
2008,05,18,13,52,18.60
2008,05,18,13,53,18.50
2008,05,18,13,54,18.40
2008,05,18,13,55,18.30
2008,05,18,13,56,18.30
2008,05,18,13,57,18.30
2008,05,18,13,58,18.30
2008,05,18,13,59,18.20
2008,05,18,14,00,18.10
2008,05,18,14,01,18.00
2008,05,18,14,02,17.90
2008,05,18,14,03,18.00
2008,05,18,14,04,18.10
2008,05,18,14,05,18.20
2008,05,18,14,06,18.20
2008,05,18,14,07,18.20
2008,05,18,14,08,18.30
2008,05,18,14,09,18.30
2008,05,18,14,10,18.30
2008,05,18,14,11,18.40
2008,05,18,14,12,18.40
2008,05,18,14,13,18.50
2008,05,18,14,14,18.60
2008,05,18,14,15,18.60
2008,05,18,14,16,18.60
2008,05,18,14,17,18.70
2008,05,18,14,18,18.70
2008,05,18,14,19,18.90
2008,05,18,14,20,19.00
2008,05,18,14,21,19.10
2008,05,18,14,22,19.10
2008,05,18,14,23,19.10
2008,05,18,14,24,19.20
2008,05,18,14,25,19.30
2008,05,18,14,26,19.30
2008,05,18,14,27,19.30
2008,05,18,14,28,19.30
2008,05,18,14,29,19.30
2008,05,18,14,30,19.30
2008,05,18,14,31,19.10
2008,05,18,14,32,19.00
2008,05,18,14,33,18.90
2008,05,18,14,34,18.90
2008,05,18,14,35,18.90
2008,05,18,14,36,18.90
2008,05,18,14,37,18.90
2008,05,18,14,38,19.00
2008,05,18,14,39,19.00
2008,05,18,14,40,19.10
2008,05,18,14,41,19.00
2008,05,18,14,42,19.10
2008,05,18,14,43,19.10
2008,05,18,14,44,19.10
2008,05,18,14,45,19.00
2008,05,18,14,46,18.90
2008,05,18,14,47,18.90
2008,05,18,14,48,19.00
2008,05,18,14,49,19.00
2008,05,18,14,50,19.00
2008,05,18,14,51,19.00
2008,05,18,14,52,19.00
2008,05,18,14,53,19.10
2008,05,18,14,54,19.10
2008,05,18,14,55,19.20
2008,05,18,14,56,19.30
2008,05,18,14,57,19.30
2008,05,18,14,58,19.40
2008,05,18,14,59,19.40
2008,05,18,15,00,19.50
2008,05,18,15,01,19.60
2008,05,18,15,02,19.70
2008,05,18,15,03,19.80
2008,05,18,15,04,19.90
2008,05,18,15,05,20.00
2008,05,18,15,06,20.20
2008,05,18,15,07,20.20
2008,05,18,15,08,20.30
2008,05,18,15,09,20.30
2008,05,18,15,10,20.40
2008,05,18,15,11,20.40
2008,05,18,15,12,20.50
2008,05,18,15,13,20.70
2008,05,18,15,14,20.80
2008,05,18,15,15,20.90
2008,05,18,15,16,21.00
2008,05,18,15,17,21.00
2008,05,18,15,18,21.10
2008,05,18,15,19,21.20
2008,05,18,15,20,21.20
2008,05,18,15,21,21.20
2008,05,18,15,22,21.20
2008,05,18,15,23,21.10
2008,05,18,15,24,21.00
2008,05,18,15,25,21.00
2008,05,18,15,26,21.00
2008,05,18,15,27,21.00
2008,05,18,15,28,20.90
2008,05,18,15,29,20.80
2008,05,18,15,30,20.70
2008,05,18,15,31,20.60
2008,05,18,15,32,20.50
2008,05,18,15,33,20.50
2008,05,18,15,34,20.60
2008,05,18,15,35,20.60
2008,05,18,15,36,20.70
2008,05,18,15,37,20.70
2008,05,18,15,38,20.80
2008,05,18,15,39,20.90
2008,05,18,15,40,21.00
2008,05,18,15,41,21.10
2008,05,18,15,42,21.10
2008,05,18,15,43,21.20
2008,05,18,15,44,21.20
2008,05,18,15,45,21.20
2008,05,18,15,46,21.20
2008,05,18,15,47,21.20
2008,05,18,15,48,21.10
2008,05,18,15,49,21.10
2008,05,18,15,50,21.10
2008,05,18,15,51,21.10
2008,05,18,15,52,21.20
2008,05,18,15,53,21.20
2008,05,18,15,54,21.30
2008,05,18,15,55,21.40
2008,05,18,15,56,21.50
2008,05,18,15,57,21.50
2008,05,18,15,58,21.50
2008,05,18,15,59,21.50
2008,05,18,16,00,21.60
2008,05,18,16,01,21.60
2008,05,18,16,02,21.60
2008,05,18,16,03,21.60
2008,05,18,16,04,21.50
2008,05,18,16,05,21.50
2008,05,18,16,06,21.60
2008,05,18,16,07,21.70
2008,05,18,16,08,21.70
2008,05,18,16,09,21.60
2008,05,18,16,10,21.60
2008,05,18,16,11,21.60
2008,05,18,16,12,21.50
2008,05,18,16,13,21.50
2008,05,18,16,14,21.40
2008,05,18,16,15,21.40
2008,05,18,16,16,21.50
2008,05,18,16,17,21.60
2008,05,18,16,18,21.60
2008,05,18,16,19,21.60
2008,05,18,16,20,21.50
2008,05,18,16,21,21.50
2008,05,18,16,22,21.50
2008,05,18,16,23,21.50
2008,05,18,16,24,21.40
2008,05,18,16,25,21.50
2008,05,18,16,26,21.60
2008,05,18,16,27,21.60
2008,05,18,16,28,21.60
2008,05,18,16,29,21.50
2008,05,18,16,30,21.40
2008,05,18,16,31,21.50
2008,05,18,16,32,21.50
2008,05,18,16,33,21.60
2008,05,18,16,34,21.60
2008,05,18,16,35,21.60
2008,05,18,16,36,21.60
2008,05,18,16,37,21.60
2008,05,18,16,38,21.70
2008,05,18,16,39,21.60
2008,05,18,16,40,21.70
2008,05,18,16,41,21.80
2008,05,18,16,42,21.80
2008,05,18,16,43,21.90
2008,05,18,16,44,22.00
2008,05,18,16,45,21.90
2008,05,18,16,46,21.90
2008,05,18,16,47,21.80
2008,05,18,16,48,21.80
2008,05,18,16,49,21.80
2008,05,18,16,50,21.80
2008,05,18,16,51,21.90
2008,05,18,16,52,21.90
2008,05,18,16,53,22.00
2008,05,18,16,54,22.00
2008,05,18,16,55,21.90
2008,05,18,16,56,21.90
2008,05,18,16,57,21.90
2008,05,18,16,58,21.90
2008,05,18,16,59,21.80
2008,05,18,17,00,21.80
2008,05,18,17,01,21.80
2008,05,18,17,02,21.80
2008,05,18,17,03,21.80
2008,05,18,17,04,21.70
2008,05,18,17,05,21.70
2008,05,18,17,06,21.70
2008,05,18,17,07,21.70
2008,05,18,17,08,21.70
2008,05,18,17,09,21.70
2008,05,18,17,10,21.70
2008,05,18,17,11,21.60
2008,05,18,17,12,21.60
2008,05,18,17,13,21.40
2008,05,18,17,14,21.40
2008,05,18,17,15,21.30
2008,05,18,17,16,21.30
2008,05,18,17,17,21.30
2008,05,18,17,18,21.30
2008,05,18,17,19,21.20
2008,05,18,17,20,21.10
2008,05,18,17,21,21.10
2008,05,18,17,22,21.00
2008,05,18,17,23,21.00
2008,05,18,17,24,20.90
2008,05,18,17,25,20.90
2008,05,18,17,26,20.90
2008,05,18,17,27,20.90
2008,05,18,17,28,20.90
2008,05,18,17,29,20.80
2008,05,18,17,30,20.80
2008,05,18,17,31,20.80
2008,05,18,17,32,20.80
2008,05,18,17,33,20.70
2008,05,18,17,34,20.60
2008,05,18,17,35,20.60
2008,05,18,17,36,20.60
2008,05,18,17,37,20.70
2008,05,18,17,38,20.70
2008,05,18,17,39,20.70
2008,05,18,17,40,20.70
2008,05,18,17,41,20.80
2008,05,18,17,42,20.80
2008,05,18,17,43,20.80
2008,05,18,17,44,20.90
2008,05,18,17,45,20.90
2008,05,18,17,46,20.90
2008,05,18,17,47,20.90
2008,05,18,17,48,20.80
2008,05,18,17,49,20.80
2008,05,18,17,50,20.80
2008,05,18,17,51,20.80
2008,05,18,17,52,20.80
2008,05,18,17,53,20.70
2008,05,18,17,54,20.60
2008,05,18,17,55,20.50
2008,05,18,17,56,20.50
2008,05,18,17,57,20.50
2008,05,18,17,58,20.40
2008,05,18,17,59,20.40
2008,05,18,18,00,20.30
2008,05,18,18,01,20.20
2008,05,18,18,02,20.20
2008,05,18,18,03,20.10
2008,05,18,18,04,20.10
2008,05,18,18,05,20.00
2008,05,18,18,06,20.10
2008,05,18,18,07,20.10
2008,05,18,18,08,20.00
2008,05,18,18,09,20.00
2008,05,18,18,10,20.00
2008,05,18,18,11,20.00
2008,05,18,18,12,20.00
2008,05,18,18,13,20.00
2008,05,18,18,14,19.90
2008,05,18,18,15,19.90
2008,05,18,18,16,19.90
2008,05,18,18,17,19.80
2008,05,18,18,18,19.80
2008,05,18,18,19,19.80
2008,05,18,18,20,19.80
2008,05,18,18,21,19.80
2008,05,18,18,22,19.80
2008,05,18,18,23,19.80
2008,05,18,18,24,19.80
2008,05,18,18,25,19.80
2008,05,18,18,26,19.80
2008,05,18,18,27,19.70
2008,05,18,18,28,19.70
2008,05,18,18,29,19.70
2008,05,18,18,30,19.70
2008,05,18,18,31,19.80
2008,05,18,18,32,19.80
2008,05,18,18,33,19.80
2008,05,18,18,34,19.80
2008,05,18,18,35,19.80
2008,05,18,18,36,19.80
2008,05,18,18,37,19.80
2008,05,18,18,38,19.90
2008,05,18,18,39,19.90
2008,05,18,18,40,19.90
2008,05,18,18,41,19.90
2008,05,18,18,42,20.00
2008,05,18,18,43,20.00
2008,05,18,18,44,20.00
2008,05,18,18,45,20.00
2008,05,18,18,46,20.10
2008,05,18,18,47,20.10
2008,05,18,18,48,20.10
2008,05,18,18,49,20.10
2008,05,18,18,50,20.10
2008,05,18,18,51,20.10
2008,05,18,18,52,20.10
2008,05,18,18,53,20.10
2008,05,18,18,54,20.10
2008,05,18,18,55,20.10
2008,05,18,18,56,20.10
2008,05,18,18,57,20.20
2008,05,18,18,58,20.10
2008,05,18,18,59,20.10
2008,05,18,19,00,20.10
2008,05,18,19,01,20.00
2008,05,18,19,02,20.00
2008,05,18,19,03,20.00
2008,05,18,19,04,19.90
2008,05,18,19,05,19.90
2008,05,18,19,06,19.90
2008,05,18,19,07,19.90
2008,05,18,19,08,19.90
2008,05,18,19,09,19.90
2008,05,18,19,10,19.80
2008,05,18,19,11,19.80
2008,05,18,19,12,19.80
2008,05,18,19,13,19.80
2008,05,18,19,14,19.80
2008,05,18,19,15,19.70
2008,05,18,19,16,19.70
2008,05,18,19,17,19.70
2008,05,18,19,18,19.60
2008,05,18,19,19,19.60
2008,05,18,19,20,19.50
2008,05,18,19,21,19.40
2008,05,18,19,22,19.40
2008,05,18,19,23,19.30
2008,05,18,19,24,19.30
2008,05,18,19,25,19.20
2008,05,18,19,26,19.20
2008,05,18,19,27,19.10
2008,05,18,19,28,19.10
2008,05,18,19,29,19.00
2008,05,18,19,30,19.00
2008,05,18,19,31,18.90
2008,05,18,19,32,18.90
2008,05,18,19,33,18.80
2008,05,18,19,34,18.80
2008,05,18,19,35,18.80
2008,05,18,19,36,18.80
2008,05,18,19,37,18.70
2008,05,18,19,38,18.70
2008,05,18,19,39,18.70
2008,05,18,19,40,18.70
2008,05,18,19,41,18.60
2008,05,18,19,42,18.60
2008,05,18,19,43,18.60
2008,05,18,19,44,18.60
2008,05,18,19,45,18.60
2008,05,18,19,46,18.50
2008,05,18,19,47,18.50
2008,05,18,19,48,18.50
2008,05,18,19,49,18.40
2008,05,18,19,50,18.40
2008,05,18,19,51,18.40
2008,05,18,19,52,18.40
2008,05,18,19,53,18.30
2008,05,18,19,54,18.30
2008,05,18,19,55,18.20
2008,05,18,19,56,18.20
2008,05,18,19,57,18.20
2008,05,18,19,58,18.10
2008,05,18,19,59,18.10
2008,05,18,20,00,18.10
2008,05,18,20,01,18.10
2008,05,18,20,02,18.00
2008,05,18,20,03,18.00
2008,05,18,20,04,18.00
2008,05,18,20,05,18.00
2008,05,18,20,06,18.00
2008,05,18,20,07,18.00
2008,05,18,20,08,18.00
2008,05,18,20,09,18.10
2008,05,18,20,10,18.10
2008,05,18,20,11,18.10
2008,05,18,20,12,18.10
2008,05,18,20,13,18.10
2008,05,18,20,14,18.20
2008,05,18,20,15,18.20
2008,05,18,20,16,18.20
2008,05,18,20,17,18.20
2008,05,18,20,18,18.20
2008,05,18,20,19,18.20
2008,05,18,20,20,18.20
2008,05,18,20,21,18.20
2008,05,18,20,22,18.20
2008,05,18,20,23,18.30
2008,05,18,20,24,18.30
2008,05,18,20,25,18.30
2008,05,18,20,26,18.30
2008,05,18,20,27,18.30
2008,05,18,20,28,18.30
2008,05,18,20,29,18.30
2008,05,18,20,30,18.30
2008,05,18,20,31,18.30
2008,05,18,20,32,18.30
2008,05,18,20,33,18.30
2008,05,18,20,34,18.30
2008,05,18,20,35,18.30
2008,05,18,20,36,18.20
2008,05,18,20,37,18.20
2008,05,18,20,38,18.20
2008,05,18,20,39,18.20
2008,05,18,20,40,18.20
2008,05,18,20,41,18.20
2008,05,18,20,42,18.20
2008,05,18,20,43,18.20
2008,05,18,20,44,18.20
2008,05,18,20,45,18.20
2008,05,18,20,46,18.20
2008,05,18,20,47,18.10
2008,05,18,20,48,18.10
2008,05,18,20,49,18.10
2008,05,18,20,50,18.00
2008,05,18,20,51,18.00
2008,05,18,20,52,17.90
2008,05,18,20,53,17.90
2008,05,18,20,54,17.80
2008,05,18,20,55,17.80
2008,05,18,20,56,17.70
2008,05,18,20,57,17.70
2008,05,18,20,58,17.60
2008,05,18,20,59,17.60
2008,05,18,21,00,17.50
2008,05,18,21,01,17.40
2008,05,18,21,02,17.40
2008,05,18,21,03,17.40
2008,05,18,21,04,17.30
2008,05,18,21,05,17.30
2008,05,18,21,06,17.30
2008,05,18,21,07,17.30
2008,05,18,21,08,17.20
2008,05,18,21,09,17.20
2008,05,18,21,10,17.20
2008,05,18,21,11,17.20
2008,05,18,21,12,17.10
2008,05,18,21,13,17.10
2008,05,18,21,14,17.00
2008,05,18,21,15,17.00
2008,05,18,21,16,16.90
2008,05,18,21,17,16.90
2008,05,18,21,18,16.90
2008,05,18,21,19,16.90
2008,05,18,21,20,16.80
2008,05,18,21,21,16.80
2008,05,18,21,22,16.80
2008,05,18,21,23,16.80
2008,05,18,21,24,16.80
2008,05,18,21,25,16.80
2008,05,18,21,26,16.80
2008,05,18,21,27,16.80
2008,05,18,21,28,16.80
2008,05,18,21,29,16.80
2008,05,18,21,30,16.80
2008,05,18,21,31,16.80
2008,05,18,21,32,16.80
2008,05,18,21,33,16.80
2008,05,18,21,34,16.90
2008,05,18,21,35,16.90
2008,05,18,21,36,16.90
2008,05,18,21,37,16.90
2008,05,18,21,38,16.90
2008,05,18,21,39,17.00
2008,05,18,21,40,17.00
2008,05,18,21,41,17.00
2008,05,18,21,42,17.00
2008,05,18,21,43,17.10
2008,05,18,21,44,17.10
2008,05,18,21,45,17.10
2008,05,18,21,46,17.10
2008,05,18,21,47,17.10
2008,05,18,21,48,17.10
2008,05,18,21,49,17.10
2008,05,18,21,50,17.20
2008,05,18,21,51,17.20
2008,05,18,21,52,17.20
2008,05,18,21,53,17.20
2008,05,18,21,54,17.20
2008,05,18,21,55,17.20
2008,05,18,21,56,17.30
2008,05,18,21,57,17.30
2008,05,18,21,58,17.30
2008,05,18,21,59,17.30
2008,05,18,22,00,17.30
2008,05,18,22,01,17.30
2008,05,18,22,02,17.30
2008,05,18,22,03,17.30
2008,05,18,22,04,17.30
2008,05,18,22,05,17.20
2008,05,18,22,06,17.20
2008,05,18,22,07,17.20
2008,05,18,22,08,17.10
2008,05,18,22,09,17.10
2008,05,18,22,10,17.10
2008,05,18,22,11,17.00
2008,05,18,22,12,17.00
2008,05,18,22,13,16.90
2008,05,18,22,14,16.90
2008,05,18,22,15,16.90
2008,05,18,22,16,16.90
2008,05,18,22,17,16.80
2008,05,18,22,18,16.80
2008,05,18,22,19,16.80
2008,05,18,22,20,16.80
2008,05,18,22,21,16.80
2008,05,18,22,22,16.70
2008,05,18,22,23,16.70
2008,05,18,22,24,16.70
2008,05,18,22,25,16.70
2008,05,18,22,26,16.60
2008,05,18,22,27,16.60
2008,05,18,22,28,16.60
2008,05,18,22,29,16.60
2008,05,18,22,30,16.50
2008,05,18,22,31,16.50
2008,05,18,22,32,16.40
2008,05,18,22,33,16.40
2008,05,18,22,34,16.30
2008,05,18,22,35,16.30
2008,05,18,22,36,16.30
2008,05,18,22,37,16.30
2008,05,18,22,38,16.30
2008,05,18,22,39,16.20
2008,05,18,22,40,16.20
2008,05,18,22,41,16.20
2008,05,18,22,42,16.20
2008,05,18,22,43,16.20
2008,05,18,22,44,16.20
2008,05,18,22,45,16.20
2008,05,18,22,46,16.20
2008,05,18,22,47,16.20
2008,05,18,22,48,16.20
2008,05,18,22,49,16.20
2008,05,18,22,50,16.20
2008,05,18,22,51,16.20
2008,05,18,22,52,16.10
2008,05,18,22,53,16.20
2008,05,18,22,54,16.20
2008,05,18,22,55,16.20
2008,05,18,22,56,16.20
2008,05,18,22,57,16.30
2008,05,18,22,58,16.30
2008,05,18,22,59,16.40
2008,05,18,23,00,16.40
2008,05,18,23,01,16.50
2008,05,18,23,02,16.50
2008,05,18,23,03,16.60
2008,05,18,23,04,16.60
2008,05,18,23,05,16.60
2008,05,18,23,06,16.60
2008,05,18,23,07,16.60
2008,05,18,23,08,16.60
2008,05,18,23,09,16.70
2008,05,18,23,10,16.60
2008,05,18,23,11,16.60
2008,05,18,23,12,16.60
2008,05,18,23,13,16.60
2008,05,18,23,14,16.50
2008,05,18,23,15,16.50
2008,05,18,23,16,16.40